Weather History for KPSP - January, 2014

Change the Weather History Date:

Sunday, January 5, 2014

  Actual Average Record
Temperature  
Mean Temperature 61 °F 56 °F  
Max Temperature 75 °F 68 °F 83 °F (1981)
Min Temperature 46 °F 45 °F 27 °F (1950)
Degree Days  
Heating Degree Days 4 9  
Month to date heating degree days 22 45  
Since 1 July heating degree days 303 431  
Cooling Degree Days 0 0  
Month to date cooling degree days 0 0  
Year to date cooling degree days 0 0  
Growing Degree Days 12 (Base 50)    
Moisture  
Dew Point 11 °F    
Average Humidity 24    
Maximum Humidity 42    
Minimum Humidity 5    
Precipitation  
Precipitation 0.00 in 0.05 in 1.38 in (1995)
Month to date precipitation 0.00 0.27  
Year to date precipitation 0.00 0.27  
Since 1 July precipitation 1.26 3.07  
Snow  
Snow 0.00 in - - ()
Month to date snowfall 0.0  
Year to date snowfall 0.0  
Since 1 July snowfall 0.0  
Snow Depth 0.00 in    
Sea Level Pressure  
Sea Level Pressure 30.18 in    
Wind  
Wind Speed 4 mph (WNW)    
Max Wind Speed 10 mph    
Max Gust Speed 13 mph    
Visibility 10 miles    
Events      
T = Trace of Precipitation, MM = Missing Value Source: NWS Daily Summary

Daily Weather History Graph

Daily Weather History Graph

Search for Another Location

Airport or City:

Trip Planner

Search our weather history database for the weather conditions in past years. The results will help you decide how hot, cold, wet, or windy it might be!

Date:

Astronomy

Jan. 05, 2014 Rise Set
Actual Time 6:51 AM PST 4:51 PM PST
Civil Twilight 6:24 AM PST 5:19 PM PST
Nautical Twilight 5:53 AM PST 5:50 PM PST
Astronomical Twilight 5:22 AM PST 6:20 PM PST
Moon 9:50 AM PST (1/5) 10:07 PM PST (1/5)
Length of Visible Light 10h 54m
Length of Day
10h 00m
Waxing Crescent, 25% of the Moon is Illuminated
Jan 5
Waxing Crescent
Jan 7
First Quarter
Jan 15
Full
Jan 23
Last Quarter
Jan 30
New

Hourly Weather History & Observations

Time (PST) Temp. Dew Point Humidity Pressure Visibility Wind Dir Wind Speed Gust Speed Precip Events Conditions
12:53 AM 50.0 °F 28.0 °F 43% 30.08 in 10.0 mi NW 4.6 mph - N/A   Clear
1:53 AM 48.9 °F 27.0 °F 43% 30.11 in 10.0 mi NW 5.8 mph - N/A   Clear
2:53 AM 53.1 °F 25.0 °F 34% 30.12 in 10.0 mi NW 4.6 mph - N/A   Clear
3:53 AM 57.9 °F 21.0 °F 24% 30.13 in 10.0 mi West 6.9 mph - N/A   Clear
4:53 AM 55.0 °F 19.9 °F 25% 30.14 in 10.0 mi West 4.6 mph - N/A   Clear
5:53 AM 55.9 °F 21.0 °F 26% 30.16 in 10.0 mi West 4.6 mph - N/A   Clear
6:53 AM 50.0 °F 21.9 °F 33% 30.19 in 10.0 mi WSW 3.5 mph - N/A   Clear
7:53 AM 55.0 °F 19.9 °F 25% 30.22 in 10.0 mi Calm Calm - N/A   Clear
8:53 AM 61.0 °F 21.9 °F 22% 30.24 in 10.0 mi Calm Calm - N/A   Clear
9:53 AM 64.0 °F 21.0 °F 19% 30.25 in 10.0 mi ESE 3.5 mph - N/A   Clear
10:53 AM 68.0 °F 12.9 °F 12% 30.23 in 10.0 mi Calm Calm - N/A   Clear
11:53 AM 71.1 °F 5.0 °F 8% 30.20 in 10.0 mi Calm Calm - N/A   Clear
12:53 PM 72.0 °F -0.0 °F 6% 30.16 in 10.0 mi Calm Calm - N/A   Clear
1:53 PM 73.0 °F -0.9 °F 5% 30.14 in 10.0 mi SSE 3.5 mph - N/A   Clear
2:53 PM 75.0 °F 3.0 °F 6% 30.15 in 10.0 mi Variable 3.5 mph - N/A   Clear
3:53 PM 73.0 °F 6.1 °F 7% 30.15 in 10.0 mi Calm Calm - N/A   Clear
4:53 PM 68.0 °F 12.9 °F 12% 30.16 in 10.0 mi Calm Calm - N/A   Clear
5:53 PM 66.0 °F -0.9 °F 7% 30.19 in 10.0 mi NW 9.2 mph - N/A   Clear
6:53 PM 64.0 °F -2.0 °F 7% 30.20 in 10.0 mi WNW 4.6 mph - N/A   Clear
7:53 PM 62.1 °F 1.9 °F 9% 30.22 in 10.0 mi West 5.8 mph - N/A   Clear
8:53 PM 60.1 °F 3.9 °F 11% 30.24 in 10.0 mi West 4.6 mph - N/A   Clear
9:53 PM 57.9 °F 3.9 °F 11% 30.25 in 10.0 mi West 5.8 mph - N/A   Clear
10:53 PM 54.0 °F 1.0 °F 12% 30.25 in 10.0 mi NNW 6.9 mph - N/A   Clear
11:53 PM 55.0 °F -0.0 °F 11% 30.24 in 10.0 mi NW 5.8 mph - N/A   Clear